EW8958 Weather Reports


Display with metric or nautical units.
time (UTC)temp
F
wind
direction
speed
MPH
gust
MPH
rain 1hr
in
rain 24hr
in
rain mn
in
humidity
%
barometer
mb
20260505003018 63 265 5.0 8.0 0.00 0.00 0.00 46 1008.1
20260505002020 64 192 4.0 6.0 0.00 0.00 0.00 45 1008.0
20260505001022 64 160 3.0 4.0 0.00 0.00 0.00 45 1007.6
20260505000023 65 216 5.0 10.0 0.00 0.00 0.00 44 1007.4
20260504235024 66 159 5.0 8.0 0.00 0.00 0.00 42 1007.2
20260504234026 67 197 5.0 10.0 0.00 0.00 0.00 41 1006.9
20260504233022 67 205 3.0 5.0 0.00 0.00 0.00 38 1006.7
20260504232018 69 178 5.0 7.0 0.00 0.00 0.00 36 1006.5
20260504231020 69 190 2.0 4.0 0.00 0.00 0.00 34 1006.3
20260504230021 70 233 5.0 7.0 0.00 0.00 0.00 34 1006.1
20260504225017 71 203 3.0 7.0 0.00 0.00 0.00 33 1006.1
20260504224052 71 272 2.0 4.0 0.00 0.00 0.00 33 1006.0
20260504223032 71 226 3.0 5.0 0.00 0.00 0.00 33 1006.0
20260504222017 72 272 2.0 5.0 0.00 0.00 0.00 32 1005.9
20260504221031 72 261 3.0 5.0 0.00 0.00 0.00 32 1006.0
20260504220026 72 216 3.0 4.0 0.00 0.00 0.00 32 1006.0
20260504215022 73 221 4.0 7.0 0.00 0.00 0.00 31 1006.0
20260504214017 74 215 3.0 6.0 0.00 0.00 0.00 30 1006.0
20260504213020 74 57 4.0 12.0 0.00 0.00 0.00 30 1006.0
20260504212026 73 218 4.0 8.0 0.00 0.00 0.00 31 1006.1
20260504211023 0 0.0 0.0 0.00 0.00 0.00 1006.1
20260504210018 74 141 4.0 6.0 0.00 0.00 0.00 30 1006.2
20260504205031 74 89 4.0 7.0 0.00 0.00 0.00 30 1006.2
20260504204023 75 306 3.0 5.0 0.00 0.00 0.00 30 1006.0
20260504203022 74 207 5.0 8.0 0.00 0.00 0.00 29 1006.0
20260504202025 75 204 5.0 9.0 0.00 0.00 0.00 28 1006.0
20260504201020 0 203 8.0 8.0 0.00 0.00 0.00 1006.1
20260504200016 76 255 4.0 7.0 0.00 0.00 0.00 28 1006.2
20260504195031 76 233 5.0 7.0 0.00 0.00 0.00 27 1006.3
20260504194027 75 226 5.0 8.0 0.00 0.00 0.00 27 1006.3
20260504193024 76 236 3.0 5.0 0.00 0.00 0.00 27 1006.2
20260504192040 75 170 5.0 9.0 0.00 0.00 0.00 27 1006.1
20260504191022 76 171 4.0 6.0 0.00 0.00 0.00 28 1006.5
20260504190027 76 201 5.0 8.0 0.00 0.00 0.00 27 1006.8
20260504185022 75 234 5.0 8.0 0.00 0.00 0.00 27 1006.8
20260504184017 75 150 5.0 9.0 0.00 0.00 0.00 28 1006.9
20260504183020 75 245 6.0 9.0 0.00 0.00 0.00 27 1006.9
20260504182053 74 86 5.0 7.0 0.00 0.00 0.00 27 1006.8
20260504181047 74 175 7.0 9.0 0.00 0.00 0.00 29 1006.9
20260504180024 74 219 6.0 10.0 0.00 0.00 0.00 28 1006.9
20260504175040 74 195 5.0 8.0 0.00 0.00 0.00 29 1006.9
20260504174015 73 206 7.0 11.0 0.00 0.00 0.00 28 1007.1
20260504173029 74 233 6.0 9.0 0.00 0.00 0.00 29 1007.2
20260504172030 74 157 5.0 8.0 0.00 0.00 0.00 29 1007.3
20260504171032 73 222 4.0 7.0 0.00 0.00 0.00 29 1007.3
20260504151041 69 170 6.0 8.0 0.00 0.00 0.00 33 1008.5
20260504141019 67 212 3.0 7.0 0.00 0.00 0.00 38 1009.2
20260504110534 49 168 2.0 4.0 0.00 0.00 0.00 56 1010.2
20260504100528 0 0.0 0.0 0.00 0.00 0.00 1010.4
20260504081535 43 0.0 0.0 0.00 0.00 0.00 66 1010.4
20260504080649 43 0.0 0.0 0.00 0.00 0.00 67 1010.3
20260504050548 0 0.0 0.0 0.00 0.00 0.00 1010.2
20260504045517 0 0.0 0.0 0.00 0.00 0.00 1010.2
20260504044531 0 0.0 0.0 0.00 0.00 0.00 1010.2
20260504043528 34 0.0 0.0 0.00 0.00 0.00 73 1010.3
20260504042601 34 0.0 0.0 0.00 0.00 0.00 73 1010.3
20260504041519 34 0.0 0.0 0.00 0.00 0.00 72 1010.2
20260504040535 0 0.0 0.0 0.00 0.00 0.00 1010.0
20260504035526 0 0.0 0.0 0.00 0.00 0.00 1010.0
20260504034522 35 0.0 0.0 0.00 0.00 0.00 72 1010.0
20260504033533 35 0.0 0.0 0.00 0.00 0.00 70 1009.9
20260504032528 36 0.0 0.0 0.00 0.00 0.00 70 1009.9
20260504031533 36 0.0 0.0 0.00 0.00 0.00 71 1009.9
20260504030547 36 0.0 0.0 0.00 0.00 0.00 70 1009.8
20260504025517 36 0.0 0.0 0.00 0.00 0.00 69 1009.7
20260504024528 37 0.0 0.0 0.00 0.00 0.00 69 1009.8
20260504023520 37 0.0 0.0 0.00 0.00 0.00 69 1009.7
20260504022518 37 0.0 0.0 0.00 0.00 0.00 68 1009.7
20260504021528 38 0.0 0.0 0.00 0.00 0.00 67 1009.6
20260504020526 38 0.0 0.0 0.00 0.00 0.00 67 1009.5
20260504015524 39 0.0 0.0 0.00 0.00 0.00 65 1009.5
20260504014522 39 0.0 0.0 0.00 0.00 0.00 65 1009.4
20260504013536 40 0.0 0.0 0.00 0.00 0.00 64 1009.3
20260504012520 41 0.0 0.0 0.00 0.00 0.00 63 1009.2
20260504011526 42 0.0 0.0 0.00 0.00 0.00 59 1009.1
20260504010558 42 0.0 0.0 0.00 0.00 0.00 58 1009.0
20260504005527 43 0.0 0.0 0.00 0.00 0.00 56 1008.8
20260504004521 44 0.0 0.0 0.00 0.00 0.00 55 1008.8